Home   Weather   Fukuoka   Past weeks
Flag for Japan

Past Weather in Fukuoka, Japan — Yesterday and Last 2 Weeks

Now
54 °F

Broken clouds.


Feels Like: 53 °F
Forecast: 51 / 47 °F
Wind: 5 mph from Northeast

Location: Fukuoka Airport

Current Time: Jan 25, 2020 at 11:37:16 am

Latest Report: Jan 25, 2020 at 10:30 am


Visibility: N/A

Pressure: 30.30 "Hg

Humidity: 72%

Dew Point: 45 °F

Location of FukuokaLocation

Past Weather in Fukuoka — Graph

°F

Fukuoka Temperature Yesterday

Maximum temperature yesterday: 59 °F (at 10:30 am)
Minimum temperature yesterday: 54 °F (at 7:00 pm)
Average temperature yesterday: 56 °F

High & Low Weather Summary for the Past Weeks

 TemperatureHumidityPressure
High64 °F (Jan 23, 11:30 am)100% (Jan 14, 11:30 pm)30.39 "Hg (Jan 14, 11:30 pm)
Low36 °F (Jan 15, 7:00 am)41% (Jan 11, 2:30 pm)29.92 "Hg (Jan 12, 1:30 am)
Average47 °F73%30.13 "Hg
* Reported Jan 10 10:00 am — Jan 25 10:30 am, Fukuoka. Weather by CustomWeather, © 2020

Note: Actual official high and low records may vary slightly from our data, if they occured in-between our weather recording intervals... More about our weather records

Fukuoka Weather History for the Previous 24 Hours

Scroll right to see more
 ConditionsComfort  
Time TempWeatherWind HumidityBarometerVisibility
10:30 am
Sat, Jan 25
54 °FBroken clouds.5 mph72%30.30 "HgN/A
10:00 am54 °FBroken clouds.3 mph72%30.30 "HgN/A
9:30 am52 °FBroken clouds.5 mph67%30.30 "HgN/A
9:00 am52 °FBroken clouds.7 mph67%30.30 "HgN/A
8:30 am52 °FPartly sunny.2 mph67%30.33 "HgN/A
8:00 am50 °FBroken clouds.7 mph71%30.33 "HgN/A
7:30 am50 °FBroken clouds.3 mph71%30.30 "HgN/A
7:00 am50 °FPassing clouds.2 mph71%30.30 "HgN/A
6:30 am52 °FPassing clouds.5 mph72%30.30 "HgN/A
5:30 am52 °FClear.5 mph72%30.27 "HgN/A
5:00 am52 °FClear.5 mph72%30.27 "HgN/A
4:30 am52 °FClear.3 mph72%30.30 "HgN/A
4:00 am52 °FClear.5 mph77%30.27 "HgN/A
3:30 am52 °FClear.2 mph77%30.30 "HgN/A
3:00 am50 °FClear.1 mph88%30.30 "HgN/A
2:30 am50 °FClear.5 mph88%30.30 "HgN/A
2:00 am50 °FClear.8 mph88%30.30 "HgN/A
1:30 am50 °FClear.8 mph88%30.30 "HgN/A
1:00 am50 °FPartly cloudy.6 mph82%30.30 "HgN/A
12:30 am50 °FClear.2 mph88%30.30 "HgN/A
12:00 am52 °FClear.6 mph77%30.30 "HgN/A
11:30 pm
Fri, Jan 24
54 °FClear.8 mph67%30.30 "HgN/A
11:00 pm54 °FClear.3 mph67%30.30 "HgN/A
10:30 pm54 °FPassing clouds.3 mph72%30.30 "HgN/A
10:00 pm54 °FPassing clouds.5 mph72%30.33 "HgN/A
9:30 pm54 °FPassing clouds.1 mph72%30.33 "HgN/A
9:00 pm54 °FPartly cloudy.3 mph72%30.33 "HgN/A
8:30 pm54 °FPartly cloudy.5 mph72%30.30 "HgN/A
8:00 pm54 °FPassing clouds.6 mph72%30.30 "HgN/A
7:30 pm54 °FPassing clouds.7 mph72%30.30 "HgN/A
7:00 pm54 °FPartly cloudy.5 mph72%30.30 "HgN/A
6:30 pm55 °FPassing clouds.7 mph72%30.27 "HgN/A
6:00 pm55 °FPassing clouds.9 mph72%30.27 "HgN/A
5:30 pm55 °FBroken clouds.12 mph72%30.24 "HgN/A
5:00 pm57 °FBroken clouds.8 mph67%30.27 "HgN/A
4:30 pm59 °FBroken clouds.9 mph63%30.24 "HgN/A
4:00 pm57 °FBroken clouds.9 mph67%30.24 "HgN/A
3:30 pm59 °FPartly sunny.12 mph63%30.24 "HgN/A
3:00 pm59 °FPartly sunny.14 mph68%30.24 "HgN/A
2:30 pm59 °FPartly sunny.13 mph72%30.24 "HgN/A
2:00 pm59 °FPartly sunny.15 mph72%30.21 "HgN/A
1:30 pm59 °FPartly sunny.10 mph72%30.21 "HgN/A
1:00 pm59 °FBroken clouds.13 mph72%30.24 "HgN/A
12:30 pm59 °FBroken clouds.13 mph72%30.24 "HgN/A
12:00 pm59 °FBroken clouds.9 mph72%30.24 "HgN/A
11:30 am59 °FBroken clouds.10 mph72%30.27 "HgN/A
11:00 am59 °FBroken clouds.9 mph72%30.27 "HgN/A
Weather by CustomWeather, © 2020

See weather overview

Advertising